owner,sensor,date,latitude,longitude,air_temperature,qcFlag 
DISL,ioos:station:DISL:MHPA:1,2016-02-01T00:00:00Z,30.6671,-87.9365,17.78,1111122 
DISL,ioos:station:DISL:MHPA:1,2016-02-01T00:30:00Z,30.6671,-87.9365,17.72,1111122 
DISL,ioos:station:DISL:MHPA:1,2016-02-01T01:00:00Z,30.6671,-87.9365,17.95,1111122 
DISL,ioos:station:DISL:MHPA:1,2016-02-01T01:30:00Z,30.6671,-87.9365,17.92,1111122 
DISL,ioos:station:DISL:MHPA:1,2016-02-01T02:00:00Z,30.6671,-87.9365,17.55,1111122 
DISL,ioos:station:DISL:MHPA:1,2016-02-01T02:30:00Z,30.6671,-87.9365,17.48,1111122 
DISL,ioos:station:DISL:MHPA:1,2016-02-01T03:00:00Z,30.6671,-87.9365,17.59,1111122 
DISL,ioos:station:DISL:MHPA:1,2016-02-01T03:30:00Z,30.6671,-87.9365,17.59,1111122 
DISL,ioos:station:DISL:MHPA:1,2016-02-01T04:00:00Z,30.6671,-87.9365,16.14,1111122 
DISL,ioos:station:DISL:MHPA:1,2016-02-01T04:30:00Z,30.6671,-87.9365,14.21,1111122 
DISL,ioos:station:DISL:MHPA:1,2016-02-01T05:00:00Z,30.6671,-87.9365,14.09,1111122 
DISL,ioos:station:DISL:MHPA:1,2016-02-01T05:30:00Z,30.6671,-87.9365,14.73,1111122 
DISL,ioos:station:DISL:MHPA:1,2016-02-01T06:00:00Z,30.6671,-87.9365,14.46,1111122 
DISL,ioos:station:DISL:MHPA:1,2016-02-01T06:30:00Z,30.6671,-87.9365,14.59,1111122 
DISL,ioos:station:DISL:MHPA:1,2016-02-01T07:00:00Z,30.6671,-87.9365,14.22,1111122 
DISL,ioos:station:DISL:MHPA:1,2016-02-01T07:30:00Z,30.6671,-87.9365,14.63,1111122 
DISL,ioos:station:DISL:MHPA:1,2016-02-01T08:00:00Z,30.6671,-87.9365,14.7,1111122 
DISL,ioos:station:DISL:MHPA:1,2016-02-01T08:30:00Z,30.6671,-87.9365,14.63,1111122 
DISL,ioos:station:DISL:MHPA:1,2016-02-01T09:00:00Z,30.6671,-87.9365,14.43,1111122 
DISL,ioos:station:DISL:MHPA:1,2016-02-01T09:30:00Z,30.6671,-87.9365,14.66,1111122 
DISL,ioos:station:DISL:MHPA:1,2016-02-01T10:00:00Z,30.6671,-87.9365,14.97,1111122 
DISL,ioos:station:DISL:MHPA:1,2016-02-01T10:30:00Z,30.6671,-87.9365,16.18,1111122 
DISL,ioos:station:DISL:MHPA:1,2016-02-01T11:00:00Z,30.6671,-87.9365,15.54,1111122 
DISL,ioos:station:DISL:MHPA:1,2016-02-01T11:30:00Z,30.6671,-87.9365,16.28,1111122 
DISL,ioos:station:DISL:MHPA:1,2016-02-01T12:00:00Z,30.6671,-87.9365,15.46,1111122 
DISL,ioos:station:DISL:MHPA:1,2016-02-01T12:30:00Z,30.6671,-87.9365,14.73,1111122 
DISL,ioos:station:DISL:MHPA:1,2016-02-01T13:00:00Z,30.6671,-87.9365,14.56,1111122 
DISL,ioos:station:DISL:MHPA:1,2016-02-01T13:30:00Z,30.6671,-87.9365,15.2,1111122 
DISL,ioos:station:DISL:MHPA:1,2016-02-01T14:00:00Z,30.6671,-87.9365,14.46,1111122 
DISL,ioos:station:DISL:MHPA:1,2016-02-01T14:30:00Z,30.6671,-87.9365,15.81,1111122 
DISL,ioos:station:DISL:MHPA:1,2016-02-01T15:00:00Z,30.6671,-87.9365,15.81,1111122 
DISL,ioos:station:DISL:MHPA:1,2016-02-01T15:30:00Z,30.6671,-87.9365,15.13,1111122 
DISL,ioos:station:DISL:MHPA:1,2016-02-01T16:00:00Z,30.6671,-87.9365,16.17,1111122 
DISL,ioos:station:DISL:MHPA:1,2016-02-01T16:30:00Z,30.6671,-87.9365,15.9,1111122 
DISL,ioos:station:DISL:MHPA:1,2016-02-01T17:00:00Z,30.6671,-87.9365,15.67,1111122 
DISL,ioos:station:DISL:MHPA:1,2016-02-01T17:30:00Z,30.6671,-87.9365,15.9,1111122 
DISL,ioos:station:DISL:MHPA:1,2016-02-01T18:00:00Z,30.6671,-87.9365,16.14,1111122 
DISL,ioos:station:DISL:MHPA:1,2016-02-01T18:30:00Z,30.6671,-87.9365,16.34,1111122 
DISL,ioos:station:DISL:MHPA:1,2016-02-01T19:00:00Z,30.6671,-87.9365,16.16,1111122 
DISL,ioos:station:DISL:MHPA:1,2016-02-01T19:30:00Z,30.6671,-87.9365,16.5,1111122 
DISL,ioos:station:DISL:MHPA:1,2016-02-01T20:00:00Z,30.6671,-87.9365,15.93,1111122 
DISL,ioos:station:DISL:MHPA:1,2016-02-01T20:30:00Z,30.6671,-87.9365,17.08,1111122 
DISL,ioos:station:DISL:MHPA:1,2016-02-01T21:00:00Z,30.6671,-87.9365,17.17,1111122 
DISL,ioos:station:DISL:MHPA:1,2016-02-01T21:30:00Z,30.6671,-87.9365,17.56,1111122 
DISL,ioos:station:DISL:MHPA:1,2016-02-01T22:00:00Z,30.6671,-87.9365,17.53,1111122 
DISL,ioos:station:DISL:MHPA:1,2016-02-01T22:30:00Z,30.6671,-87.9365,17.42,1111122 
DISL,ioos:station:DISL:MHPA:1,2016-02-01T23:00:00Z,30.6671,-87.9365,16.58,1111122 
DISL,ioos:station:DISL:MHPA:1,2016-02-01T23:30:00Z,30.6671,-87.9365,16.28,1111122 
DISL,ioos:station:DISL:MHPA:1,2016-02-02T00:00:00Z,30.6671,-87.9365,16.4,1111122 
DISL,ioos:station:DISL:MHPA:1,2016-02-02T00:30:00Z,30.6671,-87.9365,17.51,1111122 
DISL,ioos:station:DISL:MHPA:1,2016-02-02T01:00:00Z,30.6671,-87.9365,17.95,1111122 
DISL,ioos:station:DISL:MHPA:1,2016-02-02T01:30:00Z,30.6671,-87.9365,18.02,1111122 
DISL,ioos:station:DISL:MHPA:1,2016-02-02T02:00:00Z,30.6671,-87.9365,17.99,1111122 
DISL,ioos:station:DISL:MHPA:1,2016-02-02T02:30:00Z,30.6671,-87.9365,18.05,1111122 
DISL,ioos:station:DISL:MHPA:1,2016-02-02T03:00:00Z,30.6671,-87.9365,18.22,1111122 
DISL,ioos:station:DISL:MHPA:1,2016-02-02T03:30:00Z,30.6671,-87.9365,18.29,1111122 
DISL,ioos:station:DISL:MHPA:1,2016-02-02T04:00:00Z,30.6671,-87.9365,18.22,1111122 
DISL,ioos:station:DISL:MHPA:1,2016-02-02T04:30:00Z,30.6671,-87.9365,18.32,1111122 
DISL,ioos:station:DISL:MHPA:1,2016-02-02T05:00:00Z,30.6671,-87.9365,18.26,1111122 
DISL,ioos:station:DISL:MHPA:1,2016-02-02T05:30:00Z,30.6671,-87.9365,18.09,1111122 
DISL,ioos:station:DISL:MHPA:1,2016-02-02T06:00:00Z,30.6671,-87.9365,17.99,1111122 
DISL,ioos:station:DISL:MHPA:1,2016-02-02T06:30:00Z,30.6671,-87.9365,18.05,1111122 
DISL,ioos:station:DISL:MHPA:1,2016-02-02T07:00:00Z,30.6671,-87.9365,18.36,1111122 
DISL,ioos:station:DISL:MHPA:1,2016-02-02T07:30:00Z,30.6671,-87.9365,18.32,1111122 
DISL,ioos:station:DISL:MHPA:1,2016-02-02T08:00:00Z,30.6671,-87.9365,18.36,1111122 
DISL,ioos:station:DISL:MHPA:1,2016-02-02T08:30:00Z,30.6671,-87.9365,18.73,1111122 
DISL,ioos:station:DISL:MHPA:1,2016-02-02T09:00:00Z,30.6671,-87.9365,18.66,1111122 
DISL,ioos:station:DISL:MHPA:1,2016-02-02T09:30:00Z,30.6671,-87.9365,19.0,1111122 
DISL,ioos:station:DISL:MHPA:1,2016-02-02T10:00:00Z,30.6671,-87.9365,18.76,1111122 
DISL,ioos:station:DISL:MHPA:1,2016-02-02T10:30:00Z,30.6671,-87.9365,18.86,1111122 
DISL,ioos:station:DISL:MHPA:1,2016-02-02T11:00:00Z,30.6671,-87.9365,18.96,1111122 
DISL,ioos:station:DISL:MHPA:1,2016-02-02T11:30:00Z,30.6671,-87.9365,19.26,1111122 
DISL,ioos:station:DISL:MHPA:1,2016-02-02T12:00:00Z,30.6671,-87.9365,19.36,1111122 
DISL,ioos:station:DISL:MHPA:1,2016-02-02T12:30:00Z,30.6671,-87.9365,19.79,1111122 
DISL,ioos:station:DISL:MHPA:1,2016-02-02T13:00:00Z,30.6671,-87.9365,19.89,1111122 
DISL,ioos:station:DISL:MHPA:1,2016-02-02T13:30:00Z,30.6671,-87.9365,20.1,1111122 
DISL,ioos:station:DISL:MHPA:1,2016-02-02T14:00:00Z,30.6671,-87.9365,20.13,1111122 
DISL,ioos:station:DISL:MHPA:1,2016-02-02T14:30:00Z,30.6671,-87.9365,20.23,1111122 
DISL,ioos:station:DISL:MHPA:1,2016-02-02T15:00:00Z,30.6671,-87.9365,20.7,1111122 
DISL,ioos:station:DISL:MHPA:1,2016-02-02T15:30:00Z,30.6671,-87.9365,21.45,1111122 
DISL,ioos:station:DISL:MHPA:1,2016-02-02T16:00:00Z,30.6671,-87.9365,21.43,1111122 
DISL,ioos:station:DISL:MHPA:1,2016-02-02T16:30:00Z,30.6671,-87.9365,21.19,1111122 
DISL,ioos:station:DISL:MHPA:1,2016-02-02T17:00:00Z,30.6671,-87.9365,20.99,1111122 
DISL,ioos:station:DISL:MHPA:1,2016-02-02T17:30:00Z,30.6671,-87.9365,20.76,1111122 
DISL,ioos:station:DISL:MHPA:1,2016-02-02T18:00:00Z,30.6671,-87.9365,21.03,1111122 
DISL,ioos:station:DISL:MHPA:1,2016-02-02T18:30:00Z,30.6671,-87.9365,20.86,1111122 
DISL,ioos:station:DISL:MHPA:1,2016-02-02T19:00:00Z,30.6671,-87.9365,19.35,1111122 
DISL,ioos:station:DISL:MHPA:1,2016-02-02T19:30:00Z,30.6671,-87.9365,18.34,1111122 
DISL,ioos:station:DISL:MHPA:1,2016-02-02T20:00:00Z,30.6671,-87.9365,20.06,1111122 
DISL,ioos:station:DISL:MHPA:1,2016-02-02T20:30:00Z,30.6671,-87.9365,20.13,1111122 
DISL,ioos:station:DISL:MHPA:1,2016-02-02T21:00:00Z,30.6671,-87.9365,21.14,1111122 
DISL,ioos:station:DISL:MHPA:1,2016-02-02T21:30:00Z,30.6671,-87.9365,21.67,1111122 
DISL,ioos:station:DISL:MHPA:1,2016-02-02T22:00:00Z,30.6671,-87.9365,21.2,1111122 
DISL,ioos:station:DISL:MHPA:1,2016-02-02T22:30:00Z,30.6671,-87.9365,21.3,1111122 
DISL,ioos:station:DISL:MHPA:1,2016-02-02T23:00:00Z,30.6671,-87.9365,21.04,1111122 
DISL,ioos:station:DISL:MHPA:1,2016-02-02T23:30:00Z,30.6671,-87.9365,21.04,1111122 
DISL,ioos:station:DISL:MHPA:1,2016-02-03T00:00:00Z,30.6671,-87.9365,20.97,1111122 
DISL,ioos:station:DISL:MHPA:1,2016-02-03T00:30:00Z,30.6671,-87.9365,21.31,1111122 
DISL,ioos:station:DISL:MHPA:1,2016-02-03T01:00:00Z,30.6671,-87.9365,21.38,1111122 
DISL,ioos:station:DISL:MHPA:1,2016-02-03T01:30:00Z,30.6671,-87.9365,21.34,1111122 
DISL,ioos:station:DISL:MHPA:1,2016-02-03T02:00:00Z,30.6671,-87.9365,21.17,1111122 
DISL,ioos:station:DISL:MHPA:1,2016-02-03T02:30:00Z,30.6671,-87.9365,21.11,1111122 
DISL,ioos:station:DISL:MHPA:1,2016-02-03T03:00:00Z,30.6671,-87.9365,20.94,1111122 
DISL,ioos:station:DISL:MHPA:1,2016-02-03T03:30:00Z,30.6671,-87.9365,20.84,1111122 
DISL,ioos:station:DISL:MHPA:1,2016-02-03T04:00:00Z,30.6671,-87.9365,20.87,1111122 
DISL,ioos:station:DISL:MHPA:1,2016-02-03T04:30:00Z,30.6671,-87.9365,20.63,1111122 
DISL,ioos:station:DISL:MHPA:1,2016-02-03T05:00:00Z,30.6671,-87.9365,20.2,1111122 
DISL,ioos:station:DISL:MHPA:1,2016-02-03T05:30:00Z,30.6671,-87.9365,20.09,1111122 
DISL,ioos:station:DISL:MHPA:1,2016-02-03T06:00:00Z,30.6671,-87.9365,20.33,1111122 
DISL,ioos:station:DISL:MHPA:1,2016-02-03T06:30:00Z,30.6671,-87.9365,20.36,1111122 
DISL,ioos:station:DISL:MHPA:1,2016-02-03T07:00:00Z,30.6671,-87.9365,20.26,1111122 
DISL,ioos:station:DISL:MHPA:1,2016-02-03T07:30:00Z,30.6671,-87.9365,19.96,1111122 
DISL,ioos:station:DISL:MHPA:1,2016-02-03T08:00:00Z,30.6671,-87.9365,19.93,1111122 
DISL,ioos:station:DISL:MHPA:1,2016-02-03T08:30:00Z,30.6671,-87.9365,20.06,1111122 
DISL,ioos:station:DISL:MHPA:1,2016-02-03T09:00:00Z,30.6671,-87.9365,19.52,1111122 
DISL,ioos:station:DISL:MHPA:1,2016-02-03T09:30:00Z,30.6671,-87.9365,19.12,1111122 
DISL,ioos:station:DISL:MHPA:1,2016-02-03T10:00:00Z,30.6671,-87.9365,18.41,1111122 
DISL,ioos:station:DISL:MHPA:1,2016-02-03T10:30:00Z,30.6671,-87.9365,18.54,1111122 
DISL,ioos:station:DISL:MHPA:1,2016-02-03T11:00:00Z,30.6671,-87.9365,13.93,1111122 
DISL,ioos:station:DISL:MHPA:1,2016-02-03T11:30:00Z,30.6671,-87.9365,14.11,1111122 
DISL,ioos:station:DISL:MHPA:1,2016-02-03T12:00:00Z,30.6671,-87.9365,12.67,1111122 
DISL,ioos:station:DISL:MHPA:1,2016-02-03T12:30:00Z,30.6671,-87.9365,12.2,1111122 
DISL,ioos:station:DISL:MHPA:1,2016-02-03T13:00:00Z,30.6671,-87.9365,12.16,1111122 
DISL,ioos:station:DISL:MHPA:1,2016-02-03T13:30:00Z,30.6671,-87.9365,12.27,1111122 
DISL,ioos:station:DISL:MHPA:1,2016-02-03T14:00:00Z,30.6671,-87.9365,12.27,1111122 
DISL,ioos:station:DISL:MHPA:1,2016-02-03T14:30:00Z,30.6671,-87.9365,12.2,1111122 
DISL,ioos:station:DISL:MHPA:1,2016-02-03T15:00:00Z,30.6671,-87.9365,12.24,1111122 
DISL,ioos:station:DISL:MHPA:1,2016-02-03T15:30:00Z,30.6671,-87.9365,12.37,1111122 
DISL,ioos:station:DISL:MHPA:1,2016-02-03T16:00:00Z,30.6671,-87.9365,12.51,1111122 
DISL,ioos:station:DISL:MHPA:1,2016-02-03T16:30:00Z,30.6671,-87.9365,12.71,1111122 
DISL,ioos:station:DISL:MHPA:1,2016-02-03T17:00:00Z,30.6671,-87.9365,13.08,1111122 
DISL,ioos:station:DISL:MHPA:1,2016-02-03T17:30:00Z,30.6671,-87.9365,13.45,1111122 
DISL,ioos:station:DISL:MHPA:1,2016-02-03T18:00:00Z,30.6671,-87.9365,14.32,1111122 
DISL,ioos:station:DISL:MHPA:1,2016-02-03T18:30:00Z,30.6671,-87.9365,14.49,1111122 
DISL,ioos:station:DISL:MHPA:1,2016-02-03T19:00:00Z,30.6671,-87.9365,14.69,1111122 
DISL,ioos:station:DISL:MHPA:1,2016-02-03T19:30:00Z,30.6671,-87.9365,15.06,1111122 
DISL,ioos:station:DISL:MHPA:1,2016-02-03T20:00:00Z,30.6671,-87.9365,15.76,1111122 
DISL,ioos:station:DISL:MHPA:1,2016-02-03T20:30:00Z,30.6671,-87.9365,16.1,1111122 
DISL,ioos:station:DISL:MHPA:1,2016-02-03T21:00:00Z,30.6671,-87.9365,16.06,1111122 
DISL,ioos:station:DISL:MHPA:1,2016-02-03T21:30:00Z,30.6671,-87.9365,16.06,1111122 
DISL,ioos:station:DISL:MHPA:1,2016-02-03T22:00:00Z,30.6671,-87.9365,16.06,1111122 
DISL,ioos:station:DISL:MHPA:1,2016-02-03T22:30:00Z,30.6671,-87.9365,15.99,1111122 
DISL,ioos:station:DISL:MHPA:1,2016-02-03T23:00:00Z,30.6671,-87.9365,15.66,1111122 
DISL,ioos:station:DISL:MHPA:1,2016-02-03T23:30:00Z,30.6671,-87.9365,15.33,1111122 
DISL,ioos:station:DISL:MHPA:1,2016-02-04T00:00:00Z,30.6671,-87.9365,15.19,1111122 
DISL,ioos:station:DISL:MHPA:1,2016-02-04T00:30:00Z,30.6671,-87.9365,15.34,1111122 
DISL,ioos:station:DISL:MHPA:1,2016-02-04T01:00:00Z,30.6671,-87.9365,14.86,1111122 
DISL,ioos:station:DISL:MHPA:1,2016-02-04T01:30:00Z,30.6671,-87.9365,14.49,1111122 
DISL,ioos:station:DISL:MHPA:1,2016-02-04T02:00:00Z,30.6671,-87.9365,14.32,1111122 
DISL,ioos:station:DISL:MHPA:1,2016-02-04T02:30:00Z,30.6671,-87.9365,13.99,1111122 
DISL,ioos:station:DISL:MHPA:1,2016-02-04T03:00:00Z,30.6671,-87.9365,13.85,1111122 
DISL,ioos:station:DISL:MHPA:1,2016-02-04T03:30:00Z,30.6671,-87.9365,13.82,1111122 
DISL,ioos:station:DISL:MHPA:1,2016-02-04T04:00:00Z,30.6671,-87.9365,13.61,1111122 
DISL,ioos:station:DISL:MHPA:1,2016-02-04T04:30:00Z,30.6671,-87.9365,13.48,1111122 
DISL,ioos:station:DISL:MHPA:1,2016-02-04T05:00:00Z,30.6671,-87.9365,13.14,1111122 
DISL,ioos:station:DISL:MHPA:1,2016-02-04T05:30:00Z,30.6671,-87.9365,13.02,1111122 
DISL,ioos:station:DISL:MHPA:1,2016-02-04T06:00:00Z,30.6671,-87.9365,12.34,1111122 
DISL,ioos:station:DISL:MHPA:1,2016-02-04T06:30:00Z,30.6671,-87.9365,11.6,1111122 
DISL,ioos:station:DISL:MHPA:1,2016-02-04T07:00:00Z,30.6671,-87.9365,10.59,1111122 
DISL,ioos:station:DISL:MHPA:1,2016-02-04T07:30:00Z,30.6671,-87.9365,10.09,1111122 
DISL,ioos:station:DISL:MHPA:1,2016-02-04T08:00:00Z,30.6671,-87.9365,9.52,1111122 
DISL,ioos:station:DISL:MHPA:1,2016-02-04T08:30:00Z,30.6671,-87.9365,8.94,1111122 
DISL,ioos:station:DISL:MHPA:1,2016-02-04T09:00:00Z,30.6671,-87.9365,8.44,1111122 
DISL,ioos:station:DISL:MHPA:1,2016-02-04T09:30:00Z,30.6671,-87.9365,8.31,1111122 
DISL,ioos:station:DISL:MHPA:1,2016-02-04T10:00:00Z,30.6671,-87.9365,7.972,1111122 
DISL,ioos:station:DISL:MHPA:1,2016-02-04T10:30:00Z,30.6671,-87.9365,7.803,1111122 
DISL,ioos:station:DISL:MHPA:1,2016-02-04T11:00:00Z,30.6671,-87.9365,7.532,1111122 
DISL,ioos:station:DISL:MHPA:1,2016-02-04T11:30:00Z,30.6671,-87.9365,7.268,1111122 
DISL,ioos:station:DISL:MHPA:1,2016-02-04T12:00:00Z,30.6671,-87.9365,6.966,1111122 
DISL,ioos:station:DISL:MHPA:1,2016-02-04T12:30:00Z,30.6671,-87.9365,6.735,1111122 
DISL,ioos:station:DISL:MHPA:1,2016-02-04T13:00:00Z,30.6671,-87.9365,6.263,1111122 
DISL,ioos:station:DISL:MHPA:1,2016-02-04T13:30:00Z,30.6671,-87.9365,6.195,1111122 
DISL,ioos:station:DISL:MHPA:1,2016-02-04T14:00:00Z,30.6671,-87.9365,6.462,1111122 
DISL,ioos:station:DISL:MHPA:1,2016-02-04T14:30:00Z,30.6671,-87.9365,6.894,1111122 
DISL,ioos:station:DISL:MHPA:1,2016-02-04T15:00:00Z,30.6671,-87.9365,7.498,1111122 
DISL,ioos:station:DISL:MHPA:1,2016-02-04T15:30:00Z,30.6671,-87.9365,7.733,1111122 
DISL,ioos:station:DISL:MHPA:1,2016-02-04T16:00:00Z,30.6671,-87.9365,8.03,1111122 
DISL,ioos:station:DISL:MHPA:1,2016-02-04T16:30:00Z,30.6671,-87.9365,8.64,1111122 
DISL,ioos:station:DISL:MHPA:1,2016-02-04T17:00:00Z,30.6671,-87.9365,9.17,1111122 
DISL,ioos:station:DISL:MHPA:1,2016-02-04T17:30:00Z,30.6671,-87.9365,9.84,1111122 
DISL,ioos:station:DISL:MHPA:1,2016-02-04T18:00:00Z,30.6671,-87.9365,10.01,1111122 
DISL,ioos:station:DISL:MHPA:1,2016-02-04T18:30:00Z,30.6671,-87.9365,10.54,1111122 
DISL,ioos:station:DISL:MHPA:1,2016-02-04T19:00:00Z,30.6671,-87.9365,10.68,1111122 
DISL,ioos:station:DISL:MHPA:1,2016-02-04T19:30:00Z,30.6671,-87.9365,11.06,1111122 
DISL,ioos:station:DISL:MHPA:1,2016-02-04T20:00:00Z,30.6671,-87.9365,11.32,1111122 
DISL,ioos:station:DISL:MHPA:1,2016-02-04T20:30:00Z,30.6671,-87.9365,11.66,1111122 
DISL,ioos:station:DISL:MHPA:1,2016-02-04T21:00:00Z,30.6671,-87.9365,11.55,1111122 
DISL,ioos:station:DISL:MHPA:1,2016-02-04T21:30:00Z,30.6671,-87.9365,11.69,1111122 
DISL,ioos:station:DISL:MHPA:1,2016-02-04T22:00:00Z,30.6671,-87.9365,11.76,1111122 
DISL,ioos:station:DISL:MHPA:1,2016-02-04T22:30:00Z,30.6671,-87.9365,11.62,1111122 
DISL,ioos:station:DISL:MHPA:1,2016-02-04T23:00:00Z,30.6671,-87.9365,11.25,1111122 
DISL,ioos:station:DISL:MHPA:1,2016-02-04T23:30:00Z,30.6671,-87.9365,10.78,1111122 
DISL,ioos:station:DISL:MHPA:1,2016-02-05T00:00:00Z,30.6671,-87.9365,10.29,1111122 
DISL,ioos:station:DISL:MHPA:1,2016-02-05T00:30:00Z,30.6671,-87.9365,9.58,1111122 
DISL,ioos:station:DISL:MHPA:1,2016-02-05T01:00:00Z,30.6671,-87.9365,9.25,1111122 
DISL,ioos:station:DISL:MHPA:1,2016-02-05T01:30:00Z,30.6671,-87.9365,8.92,1111122 
DISL,ioos:station:DISL:MHPA:1,2016-02-05T02:00:00Z,30.6671,-87.9365,8.28,1111122 
DISL,ioos:station:DISL:MHPA:1,2016-02-05T02:30:00Z,30.6671,-87.9365,7.87,1111122 
DISL,ioos:station:DISL:MHPA:1,2016-02-05T03:00:00Z,30.6671,-87.9365,7.472,1111122 
DISL,ioos:station:DISL:MHPA:1,2016-02-05T03:30:00Z,30.6671,-87.9365,6.968,1111122 
DISL,ioos:station:DISL:MHPA:1,2016-02-05T04:00:00Z,30.6671,-87.9365,6.567,1111122 
DISL,ioos:station:DISL:MHPA:1,2016-02-05T04:30:00Z,30.6671,-87.9365,6.365,1111122 
DISL,ioos:station:DISL:MHPA:1,2016-02-05T05:00:00Z,30.6671,-87.9365,6.128,1111122 
DISL,ioos:station:DISL:MHPA:1,2016-02-05T05:30:00Z,30.6671,-87.9365,5.69,1111122 
DISL,ioos:station:DISL:MHPA:1,2016-02-05T06:00:00Z,30.6671,-87.9365,5.425,1111122 
DISL,ioos:station:DISL:MHPA:1,2016-02-05T06:30:00Z,30.6671,-87.9365,4.749,1111122 
DISL,ioos:station:DISL:MHPA:1,2016-02-05T07:00:00Z,30.6671,-87.9365,4.546,1111122 
DISL,ioos:station:DISL:MHPA:1,2016-02-05T07:30:00Z,30.6671,-87.9365,4.212,1111122 
DISL,ioos:station:DISL:MHPA:1,2016-02-05T08:00:00Z,30.6671,-87.9365,3.741,1111122 
DISL,ioos:station:DISL:MHPA:1,2016-02-05T08:30:00Z,30.6671,-87.9365,3.336,1111122 
DISL,ioos:station:DISL:MHPA:1,2016-02-05T09:00:00Z,30.6671,-87.9365,3.1,1111122 
DISL,ioos:station:DISL:MHPA:1,2016-02-05T09:30:00Z,30.6671,-87.9365,2.767,1111122 
DISL,ioos:station:DISL:MHPA:1,2016-02-05T10:00:00Z,30.6671,-87.9365,2.498,1111122 
DISL,ioos:station:DISL:MHPA:1,2016-02-05T10:30:00Z,30.6671,-87.9365,2.436,1111122 
DISL,ioos:station:DISL:MHPA:1,2016-02-05T11:00:00Z,30.6671,-87.9365,2.572,1111122 
DISL,ioos:station:DISL:MHPA:1,2016-02-05T11:30:00Z,30.6671,-87.9365,2.233,1111122 
DISL,ioos:station:DISL:MHPA:1,2016-02-05T12:00:00Z,30.6671,-87.9365,1.794,1111122 
DISL,ioos:station:DISL:MHPA:1,2016-02-05T12:30:00Z,30.6671,-87.9365,1.29,1111122 
DISL,ioos:station:DISL:MHPA:1,2016-02-05T13:00:00Z,30.6671,-87.9365,1.157,1111122 
DISL,ioos:station:DISL:MHPA:1,2016-02-05T13:30:00Z,30.6671,-87.9365,1.597,1111122 
DISL,ioos:station:DISL:MHPA:1,2016-02-05T14:00:00Z,30.6671,-87.9365,2.431,1111122 
DISL,ioos:station:DISL:MHPA:1,2016-02-05T14:30:00Z,30.6671,-87.9365,3.438,1111122 
DISL,ioos:station:DISL:MHPA:1,2016-02-05T15:00:00Z,30.6671,-87.9365,4.817,1111122 
DISL,ioos:station:DISL:MHPA:1,2016-02-05T15:30:00Z,30.6671,-87.9365,5.723,1111122 
DISL,ioos:station:DISL:MHPA:1,2016-02-05T16:00:00Z,30.6671,-87.9365,6.458,1111122 
DISL,ioos:station:DISL:MHPA:1,2016-02-05T16:30:00Z,30.6671,-87.9365,7.499,1111122 
DISL,ioos:station:DISL:MHPA:1,2016-02-05T17:00:00Z,30.6671,-87.9365,8.1,1111122 
DISL,ioos:station:DISL:MHPA:1,2016-02-05T17:30:00Z,30.6671,-87.9365,8.64,1111122 
DISL,ioos:station:DISL:MHPA:1,2016-02-05T18:00:00Z,30.6671,-87.9365,9.04,1111122 
DISL,ioos:station:DISL:MHPA:1,2016-02-05T18:30:00Z,30.6671,-87.9365,9.61,1111122 
DISL,ioos:station:DISL:MHPA:1,2016-02-05T19:00:00Z,30.6671,-87.9365,9.85,1111122 
DISL,ioos:station:DISL:MHPA:1,2016-02-05T19:30:00Z,30.6671,-87.9365,9.92,1111122 
DISL,ioos:station:DISL:MHPA:1,2016-02-05T20:00:00Z,30.6671,-87.9365,10.59,1111122 
DISL,ioos:station:DISL:MHPA:1,2016-02-05T20:30:00Z,30.6671,-87.9365,10.62,1111122 
DISL,ioos:station:DISL:MHPA:1,2016-02-05T21:00:00Z,30.6671,-87.9365,10.68,1111122 
DISL,ioos:station:DISL:MHPA:1,2016-02-05T21:30:00Z,30.6671,-87.9365,11.15,1111122 
DISL,ioos:station:DISL:MHPA:1,2016-02-05T22:00:00Z,30.6671,-87.9365,11.08,1111122 
DISL,ioos:station:DISL:MHPA:1,2016-02-05T22:30:00Z,30.6671,-87.9365,10.98,1111122 
DISL,ioos:station:DISL:MHPA:1,2016-02-05T23:00:00Z,30.6671,-87.9365,11.01,1111122 
DISL,ioos:station:DISL:MHPA:1,2016-02-05T23:30:00Z,30.6671,-87.9365,10.3,1111122 
DISL,ioos:station:DISL:MHPA:1,2016-02-06T00:00:00Z,30.6671,-87.9365,9.41,1111122 
DISL,ioos:station:DISL:MHPA:1,2016-02-06T00:30:00Z,30.6671,-87.9365,8.14,1111122 
DISL,ioos:station:DISL:MHPA:1,2016-02-06T01:00:00Z,30.6671,-87.9365,8.01,1111122 
DISL,ioos:station:DISL:MHPA:1,2016-02-06T01:30:00Z,30.6671,-87.9365,7.244,1111122 
DISL,ioos:station:DISL:MHPA:1,2016-02-06T02:00:00Z,30.6671,-87.9365,6.811,1111122 
DISL,ioos:station:DISL:MHPA:1,2016-02-06T02:30:00Z,30.6671,-87.9365,6.136,1111122 
DISL,ioos:station:DISL:MHPA:1,2016-02-06T03:00:00Z,30.6671,-87.9365,5.799,1111122 
DISL,ioos:station:DISL:MHPA:1,2016-02-06T03:30:00Z,30.6671,-87.9365,5.837,1111122 
DISL,ioos:station:DISL:MHPA:1,2016-02-06T04:00:00Z,30.6671,-87.9365,5.771,1111122 
DISL,ioos:station:DISL:MHPA:1,2016-02-06T04:30:00Z,30.6671,-87.9365,4.993,1111122 
DISL,ioos:station:DISL:MHPA:1,2016-02-06T05:00:00Z,30.6671,-87.9365,4.756,1111122 
DISL,ioos:station:DISL:MHPA:1,2016-02-06T05:30:00Z,30.6671,-87.9365,4.249,1111122 
DISL,ioos:station:DISL:MHPA:1,2016-02-06T06:00:00Z,30.6671,-87.9365,4.35,1111122 
DISL,ioos:station:DISL:MHPA:1,2016-02-06T06:30:00Z,30.6671,-87.9365,4.858,1111122 
DISL,ioos:station:DISL:MHPA:1,2016-02-06T07:00:00Z,30.6671,-87.9365,5.095,1111122 
DISL,ioos:station:DISL:MHPA:1,2016-02-06T07:30:00Z,30.6671,-87.9365,4.689,1111122 
DISL,ioos:station:DISL:MHPA:1,2016-02-06T08:00:00Z,30.6671,-87.9365,4.317,1111122 
DISL,ioos:station:DISL:MHPA:1,2016-02-06T08:30:00Z,30.6671,-87.9365,4.216,1111122 
DISL,ioos:station:DISL:MHPA:1,2016-02-06T09:00:00Z,30.6671,-87.9365,3.776,1111122 
DISL,ioos:station:DISL:MHPA:1,2016-02-06T09:30:00Z,30.6671,-87.9365,3.303,1111122 
DISL,ioos:station:DISL:MHPA:1,2016-02-06T10:00:00Z,30.6671,-87.9365,3.307,1111122 
DISL,ioos:station:DISL:MHPA:1,2016-02-06T10:30:00Z,30.6671,-87.9365,2.802,1111122 
DISL,ioos:station:DISL:MHPA:1,2016-02-06T11:00:00Z,30.6671,-87.9365,2.634,1111122 
DISL,ioos:station:DISL:MHPA:1,2016-02-06T11:30:00Z,30.6671,-87.9365,2.265,1111122 
DISL,ioos:station:DISL:MHPA:1,2016-02-06T12:00:00Z,30.6671,-87.9365,2.166,1111122 
DISL,ioos:station:DISL:MHPA:1,2016-02-06T12:30:00Z,30.6671,-87.9365,1.929,1111122 
DISL,ioos:station:DISL:MHPA:1,2016-02-06T13:00:00Z,30.6671,-87.9365,1.93,1111122 
DISL,ioos:station:DISL:MHPA:1,2016-02-06T13:30:00Z,30.6671,-87.9365,2.504,1111122 
DISL,ioos:station:DISL:MHPA:1,2016-02-06T14:00:00Z,30.6671,-87.9365,3.441,1111122 
DISL,ioos:station:DISL:MHPA:1,2016-02-06T14:30:00Z,30.6671,-87.9365,4.55,1111122 
DISL,ioos:station:DISL:MHPA:1,2016-02-06T15:00:00Z,30.6671,-87.9365,5.86,1111122 
DISL,ioos:station:DISL:MHPA:1,2016-02-06T15:30:00Z,30.6671,-87.9365,7.134,1111122 
DISL,ioos:station:DISL:MHPA:1,2016-02-06T16:00:00Z,30.6671,-87.9365,8.88,1111122 
DISL,ioos:station:DISL:MHPA:1,2016-02-06T16:30:00Z,30.6671,-87.9365,9.92,1111122 
DISL,ioos:station:DISL:MHPA:1,2016-02-06T17:00:00Z,30.6671,-87.9365,10.62,1111122 
DISL,ioos:station:DISL:MHPA:1,2016-02-06T17:30:00Z,30.6671,-87.9365,10.92,1111122 
DISL,ioos:station:DISL:MHPA:1,2016-02-06T18:00:00Z,30.6671,-87.9365,11.32,1111122 
DISL,ioos:station:DISL:MHPA:1,2016-02-06T18:30:00Z,30.6671,-87.9365,11.66,1111122 
DISL,ioos:station:DISL:MHPA:1,2016-02-06T19:00:00Z,30.6671,-87.9365,11.89,1111122 
DISL,ioos:station:DISL:MHPA:1,2016-02-06T19:30:00Z,30.6671,-87.9365,12.2,1111122 
DISL,ioos:station:DISL:MHPA:1,2016-02-06T20:00:00Z,30.6671,-87.9365,12.36,1111122 
DISL,ioos:station:DISL:MHPA:1,2016-02-06T20:30:00Z,30.6671,-87.9365,12.4,1111122 
DISL,ioos:station:DISL:MHPA:1,2016-02-06T21:00:00Z,30.6671,-87.9365,12.3,1111122 
DISL,ioos:station:DISL:MHPA:1,2016-02-06T21:30:00Z,30.6671,-87.9365,11.96,1111122 
DISL,ioos:station:DISL:MHPA:1,2016-02-06T22:00:00Z,30.6671,-87.9365,11.79,1111122 
DISL,ioos:station:DISL:MHPA:1,2016-02-06T22:30:00Z,30.6671,-87.9365,12.4,1111122 
DISL,ioos:station:DISL:MHPA:1,2016-02-06T23:00:00Z,30.6671,-87.9365,12.3,1111122 
DISL,ioos:station:DISL:MHPA:1,2016-02-06T23:30:00Z,30.6671,-87.9365,11.18,1111122 
DISL,ioos:station:DISL:MHPA:1,2016-02-07T00:00:00Z,30.6671,-87.9365,10.53,1111122 